Regional Weather Roundup
Issued by NWS

Home | Current Version | Previous Version | Text Only | Print | Product List | Glossary Off
Versions: 1 2 3 4 5 6 7 8 9 10 11 12 13 14 15 16 17 18 19 20 21 22 23 24 25 26 27 28 29 30 31 32 33 34 35 36 37 38 39 40 41 42 43 44 45 46 47 48 49 50

000
ASUS43 KBIS 071310
RWRND

NORTH DAKOTA REGIONAL WEATHER ROUNDUP
NATIONAL WEATHER SERVICE BISMARCK ND
700 AM CST SUN FEB 07 2016

NOTE: "FAIR" INDICATES FEW OR NO CLOUDS BELOW 12,000 FEET WITH NO
SIGNIFICANT WEATHER AND/OR OBSTRUCTIONS TO VISIBILITY.


NDZ001>003-009>011-017-071400-
NORTHWEST NORTH DAKOTA

CITY           SKY/WX    TMP DP  RH WIND       PRES   REMARKS
WILLISTON      MIX PCPN  32  24  72 NW36G48   29.92R WCI  16
MINOT          FLURRIES  35  24  64 W39G49    29.71R
MINOT AFB      CLOUDY    32  29  86 NW32G43   29.70R DRFTSNOWWCI  18
$$

NDZ018>021-031>035-040>046-071400-
SOUTHWEST NORTH DAKOTA

CITY           SKY/WX    TMP DP  RH WIND       PRES   REMARKS
BISMARCK       FLURRIES  36  27  69 W25G33    29.79R
DICKINSON      LGT SNOW  27  23  85 NW30G41   29.87R FOG     WCI  11
GARRISON         N/A     32  28  85 NW35G40   29.74R WCI  17
HETTINGER ARPT CLOUDY    32  16  51 NW38G51   29.94R WCI  16
$$

NDZ004>008-012>016-024-026-027-054-071400-
NORTHEAST NORTH DAKOTA

CITY           SKY/WX    TMP DP  RH WIND       PRES   REMARKS
GRAND FORKS    CLOUDY    36  28  73 NW20G30   29.51R
GRND FRKS AFB  MOCLDY    35  28  75 W24G30    29.51R
DEVILS LAKE    CLOUDY    34  29  82 W25G35    29.57R
$$

NDZ022-023-025-028>030-036>039-047>053-071400-
SOUTHEAST NORTH DAKOTA

CITY           SKY/WX    TMP DP  RH WIND       PRES   REMARKS
FARGO          MOCLDY    36  27  69 W21       29.59R
JAMESTOWN      MOCLDY    34  24  67 W29G41    29.62F
$$




USA.gov is the U.S. government's official web portal to all federal, state and local government web resources and services.